Location: Helion Bumpstead
(52.0500°N, 0.4000°E)
Time: 23:12:37
(UTC+00:00)

Cosmos 1725 Rocket - Pass Details

Date: 22 February 2026
Orbit: 962 x 989 km, 82.9° (Epoch: 11 March)

Event Time Altitude Azimuth Distance (km) Brightness Sun altitude
Rises 03:36:46 0° 121° (ESE) 3,643 7.4 -31.3°
Reaches altitude 10° 03:41:12 10° 91° (E) 2,707 7.0 -30.6°
Maximum altitude 03:43:11 12° 72° (ENE) 2,589 7.1 -30.4°
Drops below altitude 10° 03:45:11 10° 53° (NE) 2,717 7.2 -30.1°
Sets 03:49:38 0° 24° (NNE) 3,677 7.7 -29.5°
